#timestamp,LO_Frequency,Hit 
1504022415.6,286047000.0,N
1504022435.5,286046998.4,N
1504022455.3,286046996.8,N
1504022475.1,286046998.1,N
1504022495.9,286047002.4,N
1504022515.7,286047005.0,N
1504022535.5,286047008.9,N
1504022555.4,286047007.8,N
1504022575.2,286047010.3,N
1504022595.0,286047012.5,N
1504022595.9,286047012.5,N
1504022615.8,286047017.0,N
1504022635.6,286047018.8,N
1504022655.4,286047014.6,N
1504022675.3,286047015.9,N
1504022695.1,286047017.3,N
1504022696.0,286047017.3,N
1504022715.8,286047021.2,N
1504022735.7,286047021.3,N
1504022755.5,286047020.8,N
1504022775.3,286047024.6,P
1504022795.2,286047019.8,N
1504022815.9,286047022.5,P
1504022835.7,286047025.2,P
1504022855.6,286046999.9,N
1504022875.4,286047000.8,N
1504022895.2,286047000.1,N
1504022915.1,286047002.7,N
1504022916.0,286047002.7,N
1504022935.8,286047001.8,N
1504022955.6,286047005.5,N
1504022975.5,286047006.7,N
1504022995.3,286047006.5,N
1504023015.1,286047001.3,N
1504023035.8,286047006.9,N
1504023055.7,286047008.9,N
1504023075.5,286047010.2,N
1504023095.3,286047009.1,N
1504023115.2,286047008.1,N
1504023135.9,286047015.2,N
1504023155.7,286047018.8,N
1504023175.6,286047017.1,N
1504023195.4,286047015.0,N
1504023215.2,286047018.1,N
1504023235.1,286047019.5,N
1504023236.0,286047019.5,N
1504023255.8,286047017.4,N
1504023275.6,286047021.1,N
1504023295.4,286047019.3,N
1504023315.3,286047022.3,N
1504023335.1,286047020.7,N
1504023355.8,286047023.4,N
1504023375.7,286047021.4,N
1504023395.5,286047020.7,N
1504023415.4,286047025.2,P
1504023435.2,286047010.3,N
1504023455.0,286047007.8,N
1504023455.9,286047007.8,N
1504023475.8,286047009.5,N
1504023495.6,286047010.7,N
1504023515.4,286047010.4,N
1504023535.3,286047006.8,N
1504023555.1,286047003.2,N
1504023556.0,286047003.2,N
1504023575.8,286047004.0,N
1504023595.7,286047002.7,N
1504023615.5,286047001.7,N
1504023635.3,286047000.2,N
1504023655.1,286047001.0,N
1504023675.9,286047000.8,N
1504023695.7,286047001.2,N
1504023715.5,286046997.0,N
1504023735.4,286046993.3,N
1504023755.2,286046994.9,N
1504023775.0,286046998.3,N
1504023775.9,286046998.3,N
1504023795.8,286046998.6,N
1504023815.6,286046995.3,N
1504023835.4,286046995.5,N
1504023855.3,286046994.0,N
1504023875.1,286046994.5,N
1504023876.0,286046994.5,N
1504023895.8,286046988.5,N
1504023915.7,286046991.6,N
1504023935.5,286046991.5,N
1504023955.3,286046991.3,N
1504023975.1,286046991.1,N
1504023995.9,286046988.7,N
1504024015.7,286046990.8,N
1504024035.5,286046987.6,N
1504024055.4,286046985.6,N
1504024075.2,286046985.5,N
1504024095.0,286046985.5,N
1504024095.9,286046985.5,N
1504024115.8,286046986.5,N
1504024135.6,286046986.0,N
1504024155.4,286046985.6,N
1504024175.3,286046984.3,P
1504024195.1,286046993.2,N
1504024215.8,286046991.5,N
1504024235.7,286046989.8,N
1504024255.5,286046989.1,P
1504024275.3,286047002.5,P
1504024295.2,286047000.0,N
1504024315.0,286047002.7,N
1504024315.9,286047002.7,N
1504024335.2,286047002.1,N
1504024355.0,286047001.1,N
1504024355.9,286047001.1,N
1504024375.8,286046998.2,N
1504024395.6,286046999.8,N
1504024415.4,286047000.8,N
1504024435.3,286046999.2,N
1504024455.1,286046996.5,N
1504024456.0,286046996.5,N
1504024475.8,286046998.9,N
1504024495.7,286047001.2,N
1504024515.5,286047001.7,N
1504024535.4,286047005.7,N
1504024555.2,286047003.8,N
1504024575.1,286047001.8,N
1504024576.0,286047001.8,N
1504024595.8,286047002.5,N
1504024615.6,286047004.4,N
1504024635.5,286047001.5,N
1504024655.3,286047002.1,N
1504024675.1,286047004.0,N
1504024695.9,286047003.9,N
1504024715.7,286047004.0,N
1504024735.5,286047002.5,N
1504024755.3,286047001.6,N
1504024775.8,286047002.3,N
1504024795.6,286047005.7,N
1504024815.4,286047005.9,N
1504024835.3,286047005.5,N
1504024855.1,286047003.9,N
1504024856.0,286047003.9,N
1504024875.8,286047003.0,N
1504024895.7,286047005.5,N
1504024915.5,286047001.6,N
1504024935.3,286047002.6,N
1504024955.2,286046999.7,N
1504024975.9,286047002.1,N
1504024995.7,286047000.5,N
1504025015.6,286047001.1,N
1504025035.4,286047002.2,N
1504025055.2,286047001.7,N
1504025075.1,286047003.5,N
1504025076.0,286047003.5,N
1504025095.8,286046999.7,N
1504025115.6,286047000.0,N
1504025135.4,286047002.8,N
1504025155.3,286047004.0,N
1504025175.1,286047003.1,N
1504025195.8,286047002.5,N
1504025215.7,286047000.5,N
1504025235.5,286047001.0,N
1504025255.3,286047002.1,N
1504025275.2,286047003.7,N
1504025295.9,286047002.0,N
1504025315.7,286047003.5,N
1504025335.6,286047002.5,N
1504025355.4,286047002.1,N
1504025375.2,286047002.1,N
1504025395.1,286047003.4,N
1504025396.0,286047003.4,N
1504025415.6,286047004.6,P
1504025435.4,286047005.6,P
1504025455.3,286047002.9,N
1504025475.1,286047003.5,N
1504025495.8,286047001.8,N
1504025515.7,286047001.9,N
1504025535.5,286047000.1,N
1504025555.3,286047004.0,N
1504025575.2,286047002.3,N
1504025595.9,286047001.2,N
1504025615.7,286046996.6,N
1504025635.6,286046998.1,N
1504025655.4,286046999.0,N
1504025675.2,286047001.1,N
1504025695.1,286046999.2,N
1504025696.0,286046999.2,N
1504025715.8,286047000.5,N
1504025735.6,286046999.8,N
1504025755.4,286047003.6,N
1504025775.3,286047005.9,N
1504025795.1,286047003.3,N
1504025815.8,286047005.4,N
1504025835.7,286047005.7,N
1504025855.5,286047003.9,N
1504025875.3,286047003.9,N
1504025895.2,286047003.6,N
1504025915.9,286047003.5,N
1504025935.7,286047003.5,N
1504025955.6,286047003.8,N
1504025975.4,286047004.0,N
1504025995.2,286047004.4,N
